Regional Weather Roundup
Issued by NWS

Home | Current Version | Previous Version | Text Only | Print | Product List | Glossary Off
Versions: 1 2 3 4 5 6 7 8 9 10 11 12 13 14 15 16 17 18 19 20 21 22 23 24 25 26 27

000
ASUS45 KSLC 261010
RWRUT

UTAH REGIONAL WEATHER ROUNDUP
NATIONAL WEATHER SERVICE SALT LAKE CITY UT
400 AM MDT MON SEP 26 2016

UTZ001>011-023>025-261100-

NORTHERN UTAH

CITY           SKY/WX    TMP DP  RH WIND       PRES   REMARKS
BRIGHAM CITY     N/A     46  43  88 E3        30.42S
HILL AFB       CLEAR     51  39  64 E13       30.41F
LOGAN          CLEAR     45  42  89 CALM      30.44S
OGDEN          CLEAR     50  39  66 S9        30.40F
PROVO AIRPORT  CLEAR     45  41  86 CALM      30.43F
SALT LAKE CITY CLEAR     51  42  71 SE7       30.40F
VERNAL         CLOUDY    42  38  85 W5        30.45F
WENDOVER       CLEAR     48  41  76 CALM      30.41S
HEBER CITY     CLEAR     41  36  81 CALM      30.47S
WEST JORDAN    CLEAR     48  41  77 CALM      30.42F

$$

UTZ012>022-026-027-261100-

SOUTHERN/CENTRAL UTAH

CITY           SKY/WX    TMP DP  RH WIND       PRES   REMARKS
BLANDING       CLEAR     47  31  53 CALM      30.48R
BRYCE CANYON   CLEAR     32  27  81 W9        30.51F WCI  24
CEDAR CITY     CLEAR     42  34  73 SE5       30.41S
DELTA          CLEAR     46  37  71 CALM      30.42S
MILFORD        CLEAR     45  40  82 SW3       30.40F
MOAB/CYNLANDS  CLEAR     45  38  76 W5        30.36S
PRICE          CLEAR     47  36  65 E3        30.42F
ST GEORGE      SUNNY     63  34  34 E5        30.27F

$$

REGIONAL REPORTS     COLORADO/ARIZONA

CITY           SKY/WX    TMP DP  RH WIND       PRES   REMARKS
CRAIG, CO      CLOUDY    33  30  88 CALM      30.50F
GRAND JUNCTION CLEAR     48  38  68 SE13      30.40S
RIFLE          CLOUDY    43  38  82 E5        30.46S
MONTROSE       CLOUDY    44  35  70 SE10      30.47S
CORTEZ         CLEAR     38  34  85 CALM      30.43S
PAGE, AZ       CLEAR     58  33  39 S3        30.33F
GRAND CANYON   CLEAR     56  29  35 E13       30.42S
KINGMAN        CLEAR     59  33  37 SE9       30.21S
FLAGSTAFF      CLEAR     46  31  55 CALM      30.43S

$$

REGIONAL REPORTS    NEVADA/IDAHO/WYOMING

CITY           SKY/WX    TMP DP  RH WIND       PRES   REMARKS
LAS VEGAS, NV  CLEAR     73  25  16 N9        30.16F
ELY            CLEAR     36  28  73 S8        30.47F WCI  30
ELKO           CLEAR     44  37  76 CALM      30.41F
POCATELLO, ID  CLOUDY    42  37  82 CALM      30.43F
BURLEY         CLEAR     43  41  93 CALM      30.39F
EVANSTON, WY   CLOUDY    45  32  60 CALM      30.50F
ROCK SPRINGS   CLOUDY    44  35  70 SW3       30.48S

$$




USA.gov is the U.S. government's official web portal to all federal, state and local government web resources and services.